Date_Time,Julian_Date,Latitude,Longitude,Instrument_Depth,U,V,Speed,Direction
(yyyy-mm-dd hh:mn:ss UTC),(JD),(+ deg. North),(+ deg. East),(m),(cm/s),(cm/s),(cm/s),(deg True)
1981-09-29 21:00:00 UTC,2444877.375000,29.4519,-93.4333,0037,6.89,11.02,13.0000,32.0000
1981-09-29 21:30:00 UTC,2444877.395833,29.4519,-93.4333,0037,7.22,8.30,11.0000,41.0000
1981-09-29 22:00:00 UTC,2444877.416667,29.4519,-93.4333,0037,7.77,6.29,10.0000,51.0000
1981-09-29 22:30:00 UTC,2444877.437500,29.4519,-93.4333,0037,8.40,3.23,9.0000,69.0000
1981-09-29 23:00:00 UTC,2444877.458333,29.4519,-93.4333,0037,9.00,0.00,9.0000,90.0000
1981-09-29 23:30:00 UTC,2444877.479167,29.4519,-93.4333,0037,9.74,-2.25,10.0000,103.0000
1981-09-30 00:00:00 UTC,2444877.500000,29.4519,-93.4333,0037,9.21,-3.91,10.0000,113.0000
1981-09-30 00:30:00 UTC,2444877.520833,29.4519,-93.4333,0037,6.86,-4.12,8.0000,121.0000
1981-09-30 01:00:00 UTC,2444877.541667,29.4519,-93.4333,0037,5.14,-3.09,6.0000,121.0000
1981-09-30 01:30:00 UTC,2444877.562500,29.4519,-93.4333,0037,3.46,-2.00,4.0000,120.0000
1981-09-30 02:00:00 UTC,2444877.583333,29.4519,-93.4333,0037,2.12,-2.12,3.0000,135.0000
1981-09-30 02:30:00 UTC,2444877.604167,29.4519,-93.4333,0037,1.55,-2.57,3.0000,149.0000
1981-09-30 03:00:00 UTC,2444877.625000,29.4519,-93.4333,0037,1.26,-1.55,2.0000,141.0000
1981-09-30 03:30:00 UTC,2444877.645833,29.4519,-93.4333,0037,1.23,1.58,2.0000,38.0000
1981-09-30 04:00:00 UTC,2444877.666667,29.4519,-93.4333,0037,0.90,3.90,4.0000,13.0000
1981-09-30 04:30:00 UTC,2444877.687500,29.4519,-93.4333,0037,0.61,6.97,7.0000,5.0000
1981-09-30 05:00:00 UTC,2444877.708333,29.4519,-93.4333,0037,-0.68,12.98,13.0000,357.0000
1981-09-30 05:30:00 UTC,2444877.729167,29.4519,-93.4333,0037,-3.24,16.69,17.0000,349.0000
1981-09-30 06:00:00 UTC,2444877.750000,29.4519,-93.4333,0037,-4.69,16.34,17.0000,344.0000
1981-09-30 06:30:00 UTC,2444877.770833,29.4519,-93.4333,0037,-4.64,14.27,15.0000,342.0000
1981-09-30 07:00:00 UTC,2444877.791667,29.4519,-93.4333,0037,-4.45,12.22,13.0000,340.0000
1981-09-30 07:30:00 UTC,2444877.812500,29.4519,-93.4333,0037,-4.99,9.80,11.0000,333.0000
1981-09-30 08:00:00 UTC,2444877.833333,29.4519,-93.4333,0037,-6.82,7.31,10.0000,317.0000
1981-09-30 08:30:00 UTC,2444877.854167,29.4519,-93.4333,0037,-7.87,4.36,9.0000,299.0000
1981-09-30 09:00:00 UTC,2444877.875000,29.4519,-93.4333,0037,-8.40,3.23,9.0000,291.0000
1981-09-30 09:30:00 UTC,2444877.895833,29.4519,-93.4333,0037,-9.61,2.76,10.0000,286.0000
1981-09-30 10:00:00 UTC,2444877.916667,29.4519,-93.4333,0037,-9.99,0.52,10.0000,273.0000
1981-09-30 10:30:00 UTC,2444877.937500,29.4519,-93.4333,0037,-8.69,-2.33,9.0000,255.0000
1981-09-30 11:00:00 UTC,2444877.958333,29.4519,-93.4333,0037,-7.71,-4.64,9.0000,239.0000
1981-09-30 11:30:00 UTC,2444877.979167,29.4519,-93.4333,0037,-6.69,-6.02,9.0000,228.0000
1981-09-30 12:00:00 UTC,2444878.000000,29.4519,-93.4333,0037,-6.82,-7.31,10.0000,223.0000
1981-09-30 12:30:00 UTC,2444878.020833,29.4519,-93.4333,0037,-7.36,-8.17,11.0000,222.0000
1981-09-30 13:00:00 UTC,2444878.041667,29.4519,-93.4333,0037,-7.50,-8.04,11.0000,223.0000
1981-09-30 13:30:00 UTC,2444878.062500,29.4519,-93.4333,0037,-8.49,-8.49,12.0000,225.0000
1981-09-30 14:00:00 UTC,2444878.083333,29.4519,-93.4333,0037,-10.10,-8.18,13.0000,231.0000
1981-09-30 14:30:00 UTC,2444878.104167,29.4519,-93.4333,0037,-11.26,-6.50,13.0000,240.0000
1981-09-30 15:00:00 UTC,2444878.125000,29.4519,-93.4333,0037,-11.28,-4.10,12.0000,250.0000
1981-09-30 15:30:00 UTC,2444878.145833,29.4519,-93.4333,0037,-11.85,-1.88,12.0000,261.0000
1981-09-30 16:00:00 UTC,2444878.166667,29.4519,-93.4333,0037,-11.99,0.42,12.0000,272.0000
1981-09-30 16:30:00 UTC,2444878.187500,29.4519,-93.4333,0037,-12.36,4.02,13.0000,288.0000
1981-09-30 17:00:00 UTC,2444878.208333,29.4519,-93.4333,0037,-11.61,7.83,14.0000,304.0000
1981-09-30 17:30:00 UTC,2444878.229167,29.4519,-93.4333,0037,-10.07,9.73,14.0000,314.0000
1981-09-30 18:00:00 UTC,2444878.250000,29.4519,-93.4333,0037,-9.84,11.32,15.0000,319.0000
1981-09-30 18:30:00 UTC,2444878.270833,29.4519,-93.4333,0037,-10.28,12.26,16.0000,320.0000
1981-09-30 19:00:00 UTC,2444878.291667,29.4519,-93.4333,0037,-10.50,12.08,16.0000,319.0000
1981-09-30 19:30:00 UTC,2444878.312500,29.4519,-93.4333,0037,-10.04,11.15,15.0000,318.0000
1981-09-30 20:00:00 UTC,2444878.333333,29.4519,-93.4333,0037,-10.42,10.79,15.0000,316.0000
1981-09-30 20:30:00 UTC,2444878.354167,29.4519,-93.4333,0037,-10.40,9.37,14.0000,312.0000
1981-09-30 21:00:00 UTC,2444878.375000,29.4519,-93.4333,0037,-11.18,8.43,14.0000,307.0000
1981-09-30 21:30:00 UTC,2444878.395833,29.4519,-93.4333,0037,-11.02,6.89,13.0000,302.0000
1981-09-30 22:00:00 UTC,2444878.416667,29.4519,-93.4333,0037,-10.18,6.36,12.0000,302.0000
1981-09-30 22:30:00 UTC,2444878.437500,29.4519,-93.4333,0037,-9.89,4.82,11.0000,296.0000
1981-09-30 23:00:00 UTC,2444878.458333,29.4519,-93.4333,0037,-9.74,2.25,10.0000,283.0000
1981-09-30 23:30:00 UTC,2444878.479167,29.4519,-93.4333,0037,-9.95,1.05,10.0000,276.0000
1981-10-01 00:00:00 UTC,2444878.500000,29.4519,-93.4333,0037,-9.78,2.08,10.0000,282.0000
1981-10-01 00:30:00 UTC,2444878.520833,29.4519,-93.4333,0037,-9.40,3.42,10.0000,290.0000
1981-10-01 01:00:00 UTC,2444878.541667,29.4519,-93.4333,0037,-10.27,3.94,11.0000,291.0000
1981-10-01 01:30:00 UTC,2444878.562500,29.4519,-93.4333,0037,-11.59,3.11,12.0000,285.0000
1981-10-01 02:00:00 UTC,2444878.583333,29.4519,-93.4333,0037,-12.87,1.81,13.0000,278.0000
1981-10-01 02:30:00 UTC,2444878.604167,29.4519,-93.4333,0037,-13.97,0.98,14.0000,274.0000
1981-10-01 03:00:00 UTC,2444878.625000,29.4519,-93.4333,0037,-15.88,1.95,16.0000,277.0000
1981-10-01 03:30:00 UTC,2444878.645833,29.4519,-93.4333,0037,-16.34,4.69,17.0000,286.0000
1981-10-01 04:00:00 UTC,2444878.666667,29.4519,-93.4333,0037,-16.18,7.89,18.0000,296.0000
1981-10-01 04:30:00 UTC,2444878.687500,29.4519,-93.4333,0037,-16.29,9.79,19.0000,301.0000
1981-10-01 05:00:00 UTC,2444878.708333,29.4519,-93.4333,0037,-18.19,10.50,21.0000,300.0000
1981-10-01 05:30:00 UTC,2444878.729167,29.4519,-93.4333,0037,-19.05,11.00,22.0000,300.0000
1981-10-01 06:00:00 UTC,2444878.750000,29.4519,-93.4333,0037,-19.92,11.50,23.0000,300.0000
1981-10-01 06:30:00 UTC,2444878.770833,29.4519,-93.4333,0037,-21.87,12.12,25.0000,299.0000
1981-10-01 07:00:00 UTC,2444878.791667,29.4519,-93.4333,0037,-22.28,11.35,25.0000,297.0000
1981-10-01 07:30:00 UTC,2444878.812500,29.4519,-93.4333,0037,-22.25,8.99,24.0000,292.0000
1981-10-01 08:00:00 UTC,2444878.833333,29.4519,-93.4333,0037,-22.95,7.02,24.0000,287.0000
1981-10-01 08:30:00 UTC,2444878.854167,29.4519,-93.4333,0037,-25.11,6.73,26.0000,285.0000
1981-10-01 09:00:00 UTC,2444878.875000,29.4519,-93.4333,0037,-26.20,6.53,27.0000,284.0000
1981-10-01 09:30:00 UTC,2444878.895833,29.4519,-93.4333,0037,-27.17,6.77,28.0000,284.0000
1981-10-01 10:00:00 UTC,2444878.916667,29.4519,-93.4333,0037,-27.28,6.30,28.0000,283.0000
1981-10-01 10:30:00 UTC,2444878.937500,29.4519,-93.4333,0037,-27.49,5.34,28.0000,281.0000
1981-10-01 11:00:00 UTC,2444878.958333,29.4519,-93.4333,0037,-25.43,5.41,26.0000,282.0000
1981-10-01 11:30:00 UTC,2444878.979167,29.4519,-93.4333,0037,-24.45,5.20,25.0000,282.0000
1981-10-01 12:00:00 UTC,2444879.000000,29.4519,-93.4333,0037,-22.72,3.60,23.0000,279.0000
1981-10-01 12:30:00 UTC,2444879.020833,29.4519,-93.4333,0037,-21.92,1.92,22.0000,275.0000
1981-10-01 13:00:00 UTC,2444879.041667,29.4519,-93.4333,0037,-22.00,-0.00,22.0000,270.0000
1981-10-01 13:30:00 UTC,2444879.062500,29.4519,-93.4333,0037,-22.99,-0.80,23.0000,268.0000
1981-10-01 14:00:00 UTC,2444879.083333,29.4519,-93.4333,0037,-23.00,-0.40,23.0000,269.0000
1981-10-01 14:30:00 UTC,2444879.104167,29.4519,-93.4333,0037,-23.00,0.40,23.0000,271.0000
1981-10-01 15:00:00 UTC,2444879.125000,29.4519,-93.4333,0037,-23.00,-0.00,23.0000,270.0000
1981-10-01 15:30:00 UTC,2444879.145833,29.4519,-93.4333,0037,-21.99,0.77,22.0000,272.0000
1981-10-01 16:00:00 UTC,2444879.166667,29.4519,-93.4333,0037,-20.80,2.92,21.0000,278.0000
1981-10-01 16:30:00 UTC,2444879.187500,29.4519,-93.4333,0037,-19.56,4.16,20.0000,282.0000
1981-10-01 17:00:00 UTC,2444879.208333,29.4519,-93.4333,0037,-19.49,4.50,20.0000,283.0000
1981-10-01 17:30:00 UTC,2444879.229167,29.4519,-93.4333,0037,-19.70,3.47,20.0000,280.0000
1981-10-01 18:00:00 UTC,2444879.250000,29.4519,-93.4333,0037,-20.68,3.65,21.0000,280.0000
1981-10-01 18:30:00 UTC,2444879.270833,29.4519,-93.4333,0037,-20.54,4.37,21.0000,282.0000
1981-10-01 19:00:00 UTC,2444879.291667,29.4519,-93.4333,0037,-21.25,5.69,22.0000,285.0000
1981-10-01 19:30:00 UTC,2444879.312500,29.4519,-93.4333,0037,-20.92,6.80,22.0000,288.0000
1981-10-01 20:00:00 UTC,2444879.333333,29.4519,-93.4333,0037,-20.67,7.52,22.0000,290.0000
1981-10-01 20:30:00 UTC,2444879.354167,29.4519,-93.4333,0037,-20.54,7.88,22.0000,291.0000
1981-10-01 21:00:00 UTC,2444879.375000,29.4519,-93.4333,0037,-19.61,7.53,21.0000,291.0000
1981-10-01 21:30:00 UTC,2444879.395833,29.4519,-93.4333,0037,-19.47,7.87,21.0000,292.0000
1981-10-01 22:00:00 UTC,2444879.416667,29.4519,-93.4333,0037,-18.13,8.45,20.0000,295.0000
1981-10-01 22:30:00 UTC,2444879.437500,29.4519,-93.4333,0037,-16.93,8.63,19.0000,297.0000
1981-10-01 23:00:00 UTC,2444879.458333,29.4519,-93.4333,0037,-16.04,8.17,18.0000,297.0000
1981-10-01 23:30:00 UTC,2444879.479167,29.4519,-93.4333,0037,-14.26,7.26,16.0000,297.0000
1981-10-02 00:00:00 UTC,2444879.500000,29.4519,-93.4333,0037,-13.48,6.58,15.0000,296.0000
1981-10-02 00:30:00 UTC,2444879.520833,29.4519,-93.4333,0037,-11.88,5.29,13.0000,294.0000
1981-10-02 01:00:00 UTC,2444879.541667,29.4519,-93.4333,0037,-10.34,3.76,11.0000,290.0000
1981-10-02 01:30:00 UTC,2444879.562500,29.4519,-93.4333,0037,-10.76,2.29,11.0000,282.0000
1981-10-02 02:00:00 UTC,2444879.583333,29.4519,-93.4333,0037,-10.98,0.58,11.0000,273.0000
1981-10-02 02:30:00 UTC,2444879.604167,29.4519,-93.4333,0037,-10.99,-0.38,11.0000,268.0000
1981-10-02 03:00:00 UTC,2444879.625000,29.4519,-93.4333,0037,-9.99,-0.52,10.0000,267.0000
1981-10-02 03:30:00 UTC,2444879.645833,29.4519,-93.4333,0037,-9.00,-0.00,9.0000,270.0000
1981-10-02 04:00:00 UTC,2444879.666667,29.4519,-93.4333,0037,-8.97,0.78,9.0000,275.0000
1981-10-02 04:30:00 UTC,2444879.687500,29.4519,-93.4333,0037,-9.93,1.22,10.0000,277.0000
1981-10-02 05:00:00 UTC,2444879.708333,29.4519,-93.4333,0037,-10.96,0.96,11.0000,275.0000
1981-10-02 05:30:00 UTC,2444879.729167,29.4519,-93.4333,0037,-11.95,1.05,12.0000,275.0000
1981-10-02 06:00:00 UTC,2444879.750000,29.4519,-93.4333,0037,-11.88,1.67,12.0000,278.0000
1981-10-02 06:30:00 UTC,2444879.770833,29.4519,-93.4333,0037,-11.74,2.49,12.0000,282.0000
1981-10-02 07:00:00 UTC,2444879.791667,29.4519,-93.4333,0037,-12.67,2.92,13.0000,283.0000
1981-10-02 07:30:00 UTC,2444879.812500,29.4519,-93.4333,0037,-12.56,3.36,13.0000,285.0000
1981-10-02 08:00:00 UTC,2444879.833333,29.4519,-93.4333,0037,-13.46,3.86,14.0000,286.0000
1981-10-02 08:30:00 UTC,2444879.854167,29.4519,-93.4333,0037,-14.67,3.12,15.0000,282.0000
1981-10-02 09:00:00 UTC,2444879.875000,29.4519,-93.4333,0037,-14.92,1.57,15.0000,276.0000
1981-10-02 09:30:00 UTC,2444879.895833,29.4519,-93.4333,0037,-14.99,0.52,15.0000,272.0000
1981-10-02 10:00:00 UTC,2444879.916667,29.4519,-93.4333,0037,-15.00,-0.26,15.0000,269.0000
1981-10-02 10:30:00 UTC,2444879.937500,29.4519,-93.4333,0037,-13.97,-0.98,14.0000,266.0000
1981-10-02 11:00:00 UTC,2444879.958333,29.4519,-93.4333,0037,-12.87,-1.81,13.0000,262.0000
1981-10-02 11:30:00 UTC,2444879.979167,29.4519,-93.4333,0037,-11.64,-2.90,12.0000,256.0000
1981-10-02 12:00:00 UTC,2444880.000000,29.4519,-93.4333,0037,-10.27,-3.94,11.0000,249.0000
1981-10-02 12:30:00 UTC,2444880.020833,29.4519,-93.4333,0037,-8.91,-4.54,10.0000,243.0000
1981-10-02 13:00:00 UTC,2444880.041667,29.4519,-93.4333,0037,-7.55,-4.90,9.0000,237.0000
1981-10-02 13:30:00 UTC,2444880.062500,29.4519,-93.4333,0037,-6.55,-4.59,8.0000,235.0000
1981-10-02 14:00:00 UTC,2444880.083333,29.4519,-93.4333,0037,-5.95,-5.35,8.0000,228.0000
1981-10-02 14:30:00 UTC,2444880.104167,29.4519,-93.4333,0037,-5.54,-7.09,9.0000,218.0000
1981-10-02 15:00:00 UTC,2444880.125000,29.4519,-93.4333,0037,-4.77,-7.63,9.0000,212.0000
1981-10-02 15:30:00 UTC,2444880.145833,29.4519,-93.4333,0037,-4.12,-6.86,8.0000,211.0000
1981-10-02 16:00:00 UTC,2444880.166667,29.4519,-93.4333,0037,-3.81,-5.87,7.0000,213.0000
1981-10-02 16:30:00 UTC,2444880.187500,29.4519,-93.4333,0037,-4.02,-5.73,7.0000,215.0000
1981-10-02 17:00:00 UTC,2444880.208333,29.4519,-93.4333,0037,-4.41,-5.44,7.0000,219.0000
1981-10-02 17:30:00 UTC,2444880.229167,29.4519,-93.4333,0037,-4.91,-3.44,6.0000,235.0000
1981-10-02 18:00:00 UTC,2444880.250000,29.4519,-93.4333,0037,-5.00,0.09,5.0000,271.0000
1981-10-02 18:30:00 UTC,2444880.270833,29.4519,-93.4333,0037,-3.08,3.94,5.0000,322.0000
1981-10-02 19:00:00 UTC,2444880.291667,29.4519,-93.4333,0037,-0.84,5.94,6.0000,352.0000
1981-10-02 19:30:00 UTC,2444880.312500,29.4519,-93.4333,0037,0.12,7.00,7.0000,1.0000
1981-10-02 20:00:00 UTC,2444880.333333,29.4519,-93.4333,0037,2.44,5.48,6.0000,24.0000
1981-10-02 20:30:00 UTC,2444880.354167,29.4519,-93.4333,0037,5.59,4.21,7.0000,53.0000
1981-10-02 21:00:00 UTC,2444880.375000,29.4519,-93.4333,0037,6.55,4.59,8.0000,55.0000
1981-10-02 21:30:00 UTC,2444880.395833,29.4519,-93.4333,0037,5.85,5.46,8.0000,47.0000
1981-10-02 22:00:00 UTC,2444880.416667,29.4519,-93.4333,0037,5.04,4.86,7.0000,46.0000
1981-10-02 22:30:00 UTC,2444880.437500,29.4519,-93.4333,0037,4.29,2.58,5.0000,59.0000
1981-10-02 23:00:00 UTC,2444880.458333,29.4519,-93.4333,0037,3.00,0.05,3.0000,89.0000
1981-10-02 23:30:00 UTC,2444880.479167,29.4519,-93.4333,0037,2.46,-1.72,3.0000,125.0000
1981-10-03 00:00:00 UTC,2444880.500000,29.4519,-93.4333,0037,2.87,-4.10,5.0000,145.0000
1981-10-03 00:30:00 UTC,2444880.520833,29.4519,-93.4333,0037,2.96,-6.34,7.0000,155.0000
1981-10-03 01:00:00 UTC,2444880.541667,29.4519,-93.4333,0037,2.92,-9.56,10.0000,163.0000
1981-10-03 01:30:00 UTC,2444880.562500,29.4519,-93.4333,0037,1.72,-10.86,11.0000,171.0000
1981-10-03 02:00:00 UTC,2444880.583333,29.4519,-93.4333,0037,0.63,-11.98,12.0000,177.0000
1981-10-03 02:30:00 UTC,2444880.604167,29.4519,-93.4333,0037,-0.42,-11.99,12.0000,182.0000
1981-10-03 03:00:00 UTC,2444880.625000,29.4519,-93.4333,0037,-2.29,-10.76,11.0000,192.0000
1981-10-03 03:30:00 UTC,2444880.645833,29.4519,-93.4333,0037,-3.94,-10.27,11.0000,201.0000
1981-10-03 04:00:00 UTC,2444880.666667,29.4519,-93.4333,0037,-3.94,-10.27,11.0000,201.0000
1981-10-03 04:30:00 UTC,2444880.687500,29.4519,-93.4333,0037,-3.40,-10.46,11.0000,198.0000
1981-10-03 05:00:00 UTC,2444880.708333,29.4519,-93.4333,0037,-2.92,-9.56,10.0000,197.0000
1981-10-03 05:30:00 UTC,2444880.729167,29.4519,-93.4333,0037,-2.92,-9.56,10.0000,197.0000
1981-10-03 06:00:00 UTC,2444880.750000,29.4519,-93.4333,0037,-3.42,-9.40,10.0000,200.0000
1981-10-03 06:30:00 UTC,2444880.770833,29.4519,-93.4333,0037,-4.64,-7.71,9.0000,211.0000
1981-10-03 07:00:00 UTC,2444880.791667,29.4519,-93.4333,0037,-7.71,-4.64,9.0000,239.0000
1981-10-03 07:30:00 UTC,2444880.812500,29.4519,-93.4333,0037,-10.94,-1.15,11.0000,264.0000
1981-10-03 08:00:00 UTC,2444880.833333,29.4519,-93.4333,0037,-14.89,1.83,15.0000,277.0000
1981-10-03 08:30:00 UTC,2444880.854167,29.4519,-93.4333,0037,-18.44,4.60,19.0000,284.0000
1981-10-03 09:00:00 UTC,2444880.875000,29.4519,-93.4333,0037,-22.11,6.34,23.0000,286.0000
1981-10-03 09:30:00 UTC,2444880.895833,29.4519,-93.4333,0037,-26.92,7.72,28.0000,286.0000
1981-10-03 10:00:00 UTC,2444880.916667,29.4519,-93.4333,0037,-28.14,7.02,29.0000,284.0000
1981-10-03 10:30:00 UTC,2444880.937500,29.4519,-93.4333,0037,-27.49,5.34,28.0000,281.0000
1981-10-03 11:00:00 UTC,2444880.958333,29.4519,-93.4333,0037,-28.84,3.03,29.0000,276.0000
1981-10-03 11:30:00 UTC,2444880.979167,29.4519,-93.4333,0037,-29.98,1.05,30.0000,272.0000
1981-10-03 12:00:00 UTC,2444881.000000,29.4519,-93.4333,0037,-30.00,0.52,30.0000,271.0000
1981-10-03 12:30:00 UTC,2444881.020833,29.4519,-93.4333,0037,-28.98,-1.01,29.0000,268.0000
1981-10-03 13:00:00 UTC,2444881.041667,29.4519,-93.4333,0037,-27.85,-2.93,28.0000,264.0000
1981-10-03 13:30:00 UTC,2444881.062500,29.4519,-93.4333,0037,-27.66,-4.38,28.0000,261.0000
1981-10-03 14:00:00 UTC,2444881.083333,29.4519,-93.4333,0037,-26.41,-5.61,27.0000,258.0000
1981-10-03 14:30:00 UTC,2444881.104167,29.4519,-93.4333,0037,-24.99,-7.17,26.0000,254.0000
1981-10-03 15:00:00 UTC,2444881.125000,29.4519,-93.4333,0037,-25.11,-6.73,26.0000,255.0000
1981-10-03 15:30:00 UTC,2444881.145833,29.4519,-93.4333,0037,-26.31,-6.07,27.0000,257.0000
1981-10-03 16:00:00 UTC,2444881.166667,29.4519,-93.4333,0037,-25.52,-4.96,26.0000,259.0000
1981-10-03 16:30:00 UTC,2444881.187500,29.4519,-93.4333,0037,-26.85,-2.82,27.0000,264.0000
1981-10-03 17:00:00 UTC,2444881.208333,29.4519,-93.4333,0037,-27.00,-0.47,27.0000,269.0000
1981-10-03 17:30:00 UTC,2444881.229167,29.4519,-93.4333,0037,-26.98,0.94,27.0000,272.0000
1981-10-03 18:00:00 UTC,2444881.250000,29.4519,-93.4333,0037,-26.93,1.88,27.0000,274.0000
1981-10-03 18:30:00 UTC,2444881.270833,29.4519,-93.4333,0037,-27.73,3.90,28.0000,278.0000
1981-10-03 19:00:00 UTC,2444881.291667,29.4519,-93.4333,0037,-28.37,6.03,29.0000,282.0000
1981-10-03 19:30:00 UTC,2444881.312500,29.4519,-93.4333,0037,-29.65,9.06,31.0000,287.0000
1981-10-03 20:00:00 UTC,2444881.333333,29.4519,-93.4333,0037,-31.95,11.63,34.0000,290.0000
1981-10-03 20:30:00 UTC,2444881.354167,29.4519,-93.4333,0037,-32.68,12.54,35.0000,291.0000
1981-10-03 21:00:00 UTC,2444881.375000,29.4519,-93.4333,0037,-32.68,12.54,35.0000,291.0000
1981-10-03 21:30:00 UTC,2444881.395833,29.4519,-93.4333,0037,-30.60,12.36,33.0000,292.0000
1981-10-03 22:00:00 UTC,2444881.416667,29.4519,-93.4333,0037,-25.58,11.39,28.0000,294.0000
1981-10-03 22:30:00 UTC,2444881.437500,29.4519,-93.4333,0037,-21.75,10.14,24.0000,295.0000
1981-10-03 23:00:00 UTC,2444881.458333,29.4519,-93.4333,0037,-20.40,8.24,22.0000,292.0000
1981-10-03 23:30:00 UTC,2444881.479167,29.4519,-93.4333,0037,-19.23,5.51,20.0000,286.0000
1981-10-04 00:00:00 UTC,2444881.500000,29.4519,-93.4333,0037,-20.68,3.65,21.0000,280.0000
1981-10-04 00:30:00 UTC,2444881.520833,29.4519,-93.4333,0037,-20.80,2.92,21.0000,278.0000
1981-10-04 01:00:00 UTC,2444881.541667,29.4519,-93.4333,0037,-18.90,1.99,19.0000,276.0000
1981-10-04 01:30:00 UTC,2444881.562500,29.4519,-93.4333,0037,-18.99,-0.66,19.0000,268.0000
1981-10-04 02:00:00 UTC,2444881.583333,29.4519,-93.4333,0037,-18.71,-3.30,19.0000,260.0000
1981-10-04 02:30:00 UTC,2444881.604167,29.4519,-93.4333,0037,-17.61,-3.74,18.0000,258.0000
1981-10-04 03:00:00 UTC,2444881.625000,29.4519,-93.4333,0037,-16.69,-3.24,17.0000,259.0000
1981-10-04 03:30:00 UTC,2444881.645833,29.4519,-93.4333,0037,-17.61,-3.74,18.0000,258.0000
1981-10-04 04:00:00 UTC,2444881.666667,29.4519,-93.4333,0037,-18.44,-4.60,19.0000,256.0000
1981-10-04 04:30:00 UTC,2444881.687500,29.4519,-93.4333,0037,-19.41,-4.84,20.0000,256.0000
1981-10-04 05:00:00 UTC,2444881.708333,29.4519,-93.4333,0037,-19.56,-4.16,20.0000,258.0000
1981-10-04 05:30:00 UTC,2444881.729167,29.4519,-93.4333,0037,-18.77,-2.97,19.0000,261.0000
1981-10-04 06:00:00 UTC,2444881.750000,29.4519,-93.4333,0037,-19.85,-2.44,20.0000,263.0000
1981-10-04 06:30:00 UTC,2444881.770833,29.4519,-93.4333,0037,-20.68,-3.65,21.0000,260.0000
1981-10-04 07:00:00 UTC,2444881.791667,29.4519,-93.4333,0037,-21.60,-4.20,22.0000,259.0000
1981-10-04 07:30:00 UTC,2444881.812500,29.4519,-93.4333,0037,-22.50,-4.78,23.0000,258.0000
1981-10-04 08:00:00 UTC,2444881.833333,29.4519,-93.4333,0037,-23.48,-4.99,24.0000,258.0000
1981-10-04 08:30:00 UTC,2444881.854167,29.4519,-93.4333,0037,-22.41,-5.17,23.0000,257.0000
1981-10-04 09:00:00 UTC,2444881.875000,29.4519,-93.4333,0037,-19.41,-4.84,20.0000,256.0000
1981-10-04 09:30:00 UTC,2444881.895833,29.4519,-93.4333,0037,-17.78,-2.82,18.0000,261.0000
1981-10-04 10:00:00 UTC,2444881.916667,29.4519,-93.4333,0037,-16.83,-2.37,17.0000,262.0000
1981-10-04 10:30:00 UTC,2444881.937500,29.4519,-93.4333,0037,-16.26,-4.97,17.0000,253.0000
1981-10-04 11:00:00 UTC,2444881.958333,29.4519,-93.4333,0037,-14.26,-7.26,16.0000,243.0000
1981-10-04 11:30:00 UTC,2444881.979167,29.4519,-93.4333,0037,-13.42,-8.71,16.0000,237.0000
1981-10-04 12:00:00 UTC,2444882.000000,29.4519,-93.4333,0037,-11.82,-9.23,15.0000,232.0000
1981-10-04 12:30:00 UTC,2444882.020833,29.4519,-93.4333,0037,-11.32,-9.84,15.0000,229.0000
1981-10-04 13:00:00 UTC,2444882.041667,29.4519,-93.4333,0037,-10.24,-9.55,14.0000,227.0000
1981-10-04 13:30:00 UTC,2444882.062500,29.4519,-93.4333,0037,-11.89,-10.71,16.0000,228.0000
1981-10-04 14:00:00 UTC,2444882.083333,29.4519,-93.4333,0037,-12.83,-11.15,17.0000,229.0000
1981-10-04 14:30:00 UTC,2444882.104167,29.4519,-93.4333,0037,-11.70,-10.91,16.0000,227.0000
1981-10-04 15:00:00 UTC,2444882.125000,29.4519,-93.4333,0037,-11.51,-11.11,16.0000,226.0000
1981-10-04 15:30:00 UTC,2444882.145833,29.4519,-93.4333,0037,-13.90,-12.96,19.0000,227.0000
1981-10-04 16:00:00 UTC,2444882.166667,29.4519,-93.4333,0037,-15.85,-13.78,21.0000,229.0000
1981-10-04 16:30:00 UTC,2444882.187500,29.4519,-93.4333,0037,-17.87,-14.47,23.0000,231.0000
1981-10-04 17:00:00 UTC,2444882.208333,29.4519,-93.4333,0037,-18.37,-13.84,23.0000,233.0000
1981-10-04 17:30:00 UTC,2444882.229167,29.4519,-93.4333,0037,-18.37,-13.84,23.0000,233.0000
1981-10-04 18:00:00 UTC,2444882.250000,29.4519,-93.4333,0037,-17.87,-14.47,23.0000,231.0000
1981-10-04 18:30:00 UTC,2444882.270833,29.4519,-93.4333,0037,-17.62,-14.78,23.0000,230.0000
1981-10-04 19:00:00 UTC,2444882.291667,29.4519,-93.4333,0037,-17.10,-13.85,22.0000,231.0000
1981-10-04 19:30:00 UTC,2444882.312500,29.4519,-93.4333,0037,-17.20,-12.05,21.0000,235.0000
1981-10-04 20:00:00 UTC,2444882.333333,29.4519,-93.4333,0037,-16.58,-11.18,20.0000,236.0000
1981-10-04 20:30:00 UTC,2444882.354167,29.4519,-93.4333,0037,-16.11,-10.07,19.0000,238.0000
1981-10-04 21:00:00 UTC,2444882.375000,29.4519,-93.4333,0037,-16.69,-6.74,18.0000,248.0000
1981-10-04 21:30:00 UTC,2444882.395833,29.4519,-93.4333,0037,-15.76,-2.78,16.0000,260.0000
1981-10-04 22:00:00 UTC,2444882.416667,29.4519,-93.4333,0037,-14.00,-0.00,14.0000,270.0000
1981-10-04 22:30:00 UTC,2444882.437500,29.4519,-93.4333,0037,-10.52,3.22,11.0000,287.0000
1981-10-04 23:00:00 UTC,2444882.458333,29.4519,-93.4333,0037,-5.66,4.11,7.0000,306.0000
1981-10-04 23:30:00 UTC,2444882.479167,29.4519,-93.4333,0037,-1.85,2.36,3.0000,322.0000
1981-10-05 00:00:00 UTC,2444882.500000,29.4519,-93.4333,0037,-0.28,0.96,1.0000,344.0000
1981-10-05 00:30:00 UTC,2444882.520833,29.4519,-93.4333,0037,0.79,-0.62,1.0000,128.0000
1981-10-05 01:00:00 UTC,2444882.541667,29.4519,-93.4333,0037,0.50,-0.87,1.0000,150.0000
1981-10-05 01:30:00 UTC,2444882.562500,29.4519,-93.4333,0037,0.03,-2.00,2.0000,179.0000
1981-10-05 02:00:00 UTC,2444882.583333,29.4519,-93.4333,0037,-0.90,-3.90,4.0000,193.0000
1981-10-05 02:30:00 UTC,2444882.604167,29.4519,-93.4333,0037,-1.04,-5.91,6.0000,190.0000
1981-10-05 03:00:00 UTC,2444882.625000,29.4519,-93.4333,0037,-0.49,-6.98,7.0000,184.0000
1981-10-05 03:30:00 UTC,2444882.645833,29.4519,-93.4333,0037,-0.12,-7.00,7.0000,181.0000
1981-10-05 04:00:00 UTC,2444882.666667,29.4519,-93.4333,0037,-0.49,-6.98,7.0000,184.0000
1981-10-05 04:30:00 UTC,2444882.687500,29.4519,-93.4333,0037,-0.94,-8.95,9.0000,186.0000
1981-10-05 05:00:00 UTC,2444882.708333,29.4519,-93.4333,0037,-2.29,-11.78,12.0000,191.0000
1981-10-05 05:30:00 UTC,2444882.729167,29.4519,-93.4333,0037,-4.40,-16.42,17.0000,195.0000
1981-10-05 06:00:00 UTC,2444882.750000,29.4519,-93.4333,0037,-6.18,-19.02,20.0000,198.0000
1981-10-05 06:30:00 UTC,2444882.770833,29.4519,-93.4333,0037,-7.52,-20.67,22.0000,200.0000
1981-10-05 07:00:00 UTC,2444882.791667,29.4519,-93.4333,0037,-8.24,-21.47,23.0000,201.0000
1981-10-05 07:30:00 UTC,2444882.812500,29.4519,-93.4333,0037,-9.38,-22.09,24.0000,203.0000
1981-10-05 08:00:00 UTC,2444882.833333,29.4519,-93.4333,0037,-12.21,-22.96,26.0000,208.0000
1981-10-05 08:30:00 UTC,2444882.854167,29.4519,-93.4333,0037,-13.91,-23.14,27.0000,211.0000
1981-10-05 09:00:00 UTC,2444882.875000,29.4519,-93.4333,0037,-14.71,-22.64,27.0000,213.0000